Year,Month,Day,Hour,Minute,Value (Times are PST for temperature in C)
2008,10,28,00,00,3.40
2008,10,28,00,01,3.50
2008,10,28,00,02,3.50
2008,10,28,00,03,3.60
2008,10,28,00,04,3.60
2008,10,28,00,05,3.60
2008,10,28,00,06,3.50
2008,10,28,00,07,3.50
2008,10,28,00,08,3.40
2008,10,28,00,09,3.40
2008,10,28,00,10,3.30
2008,10,28,00,11,3.30
2008,10,28,00,12,3.30
2008,10,28,00,13,3.30
2008,10,28,00,14,3.30
2008,10,28,00,15,3.30
2008,10,28,00,16,3.30
2008,10,28,00,17,3.30
2008,10,28,00,18,3.30
2008,10,28,00,19,3.20
2008,10,28,00,20,3.20
2008,10,28,00,21,3.20
2008,10,28,00,22,3.20
2008,10,28,00,23,3.20
2008,10,28,00,24,3.20
2008,10,28,00,25,3.20
2008,10,28,00,26,3.20
2008,10,28,00,27,3.10
2008,10,28,00,28,3.10
2008,10,28,00,29,3.10
2008,10,28,00,30,3.10
2008,10,28,00,31,3.00
2008,10,28,00,32,3.00
2008,10,28,00,33,3.00
2008,10,28,00,34,3.00
2008,10,28,00,35,3.00
2008,10,28,00,36,3.00
2008,10,28,00,37,3.10
2008,10,28,00,38,3.00
2008,10,28,00,39,3.00
2008,10,28,00,40,3.00
2008,10,28,00,41,3.00
2008,10,28,00,42,2.90
2008,10,28,00,43,2.90
2008,10,28,00,44,2.90
2008,10,28,00,45,2.90
2008,10,28,00,46,2.90
2008,10,28,00,47,2.80
2008,10,28,00,48,2.80
2008,10,28,00,49,2.80
2008,10,28,00,50,2.80
2008,10,28,00,51,2.80
2008,10,28,00,52,2.80
2008,10,28,00,53,2.80
2008,10,28,00,54,2.80
2008,10,28,00,55,2.80
2008,10,28,00,56,2.80
2008,10,28,00,57,2.80
2008,10,28,00,58,2.80
2008,10,28,00,59,2.80
2008,10,28,01,00,2.80
2008,10,28,01,01,2.70
2008,10,28,01,02,2.70
2008,10,28,01,03,2.70
2008,10,28,01,04,2.70
2008,10,28,01,05,2.70
2008,10,28,01,06,2.70
2008,10,28,01,07,2.70
2008,10,28,01,08,2.70
2008,10,28,01,09,2.60
2008,10,28,01,10,2.60
2008,10,28,01,11,2.60
2008,10,28,01,12,2.60
2008,10,28,01,13,2.60
2008,10,28,01,14,2.60
2008,10,28,01,15,2.60
2008,10,28,01,16,2.60
2008,10,28,01,17,2.60
2008,10,28,01,18,2.60
2008,10,28,01,19,2.60
2008,10,28,01,20,2.60
2008,10,28,01,21,2.60
2008,10,28,01,22,2.60
2008,10,28,01,23,2.60
2008,10,28,01,24,2.60
2008,10,28,01,25,2.60
2008,10,28,01,26,2.60
2008,10,28,01,27,2.60
2008,10,28,01,28,2.60
2008,10,28,01,29,2.70
2008,10,28,01,30,2.70
2008,10,28,01,31,2.70
2008,10,28,01,32,2.80
2008,10,28,01,33,2.80
2008,10,28,01,34,2.80
2008,10,28,01,35,2.80
2008,10,28,01,36,2.80
2008,10,28,01,37,2.70
2008,10,28,01,38,2.70
2008,10,28,01,39,2.60
2008,10,28,01,40,2.60
2008,10,28,01,41,2.60
2008,10,28,01,42,2.60
2008,10,28,01,43,2.60
2008,10,28,01,44,2.60
2008,10,28,01,45,2.60
2008,10,28,01,46,2.50
2008,10,28,01,47,2.50
2008,10,28,01,48,2.50
2008,10,28,01,49,2.50
2008,10,28,01,50,2.40
2008,10,28,01,51,2.40
2008,10,28,01,52,2.40
2008,10,28,01,53,2.40
2008,10,28,01,54,2.40
2008,10,28,01,55,2.40
2008,10,28,01,56,2.40
2008,10,28,01,57,2.40
2008,10,28,01,58,2.40
2008,10,28,01,59,2.40
2008,10,28,02,00,2.40
2008,10,28,02,01,2.50
2008,10,28,02,02,2.50
2008,10,28,02,03,2.60
2008,10,28,02,04,2.70
2008,10,28,02,05,2.70
2008,10,28,02,06,2.70
2008,10,28,02,07,2.80
2008,10,28,02,08,2.80
2008,10,28,02,09,2.80
2008,10,28,02,10,2.80
2008,10,28,02,11,2.80
2008,10,28,02,12,2.90
2008,10,28,02,13,3.00
2008,10,28,02,14,3.00
2008,10,28,02,15,3.10
2008,10,28,02,16,3.10
2008,10,28,02,17,3.10
2008,10,28,02,18,3.00
2008,10,28,02,19,2.90
2008,10,28,02,20,2.90
2008,10,28,02,21,2.80
2008,10,28,02,22,2.80
2008,10,28,02,23,2.70
2008,10,28,02,24,2.70
2008,10,28,02,25,2.60
2008,10,28,02,26,2.70
2008,10,28,02,27,2.70
2008,10,28,02,28,2.80
2008,10,28,02,29,3.00
2008,10,28,02,30,3.10
2008,10,28,02,31,3.30
2008,10,28,02,32,3.40
2008,10,28,02,33,3.50
2008,10,28,02,34,3.50
2008,10,28,02,35,3.50
2008,10,28,02,36,3.40
2008,10,28,02,37,3.40
2008,10,28,02,38,3.40
2008,10,28,02,39,3.30
2008,10,28,02,40,3.20
2008,10,28,02,41,3.10
2008,10,28,02,42,3.10
2008,10,28,02,43,3.10
2008,10,28,02,44,3.10
2008,10,28,02,45,3.10
2008,10,28,02,46,3.10
2008,10,28,02,47,3.00
2008,10,28,02,48,3.00
2008,10,28,02,49,2.90
2008,10,28,02,50,2.90
2008,10,28,02,51,2.90
2008,10,28,02,52,2.80
2008,10,28,02,53,2.80
2008,10,28,02,54,2.80
2008,10,28,02,55,2.90
2008,10,28,02,56,2.90
2008,10,28,02,57,2.90
2008,10,28,02,58,2.90
2008,10,28,02,59,2.80
2008,10,28,03,00,2.80
2008,10,28,03,01,2.80
2008,10,28,03,02,2.80
2008,10,28,03,03,2.80
2008,10,28,03,04,2.80
2008,10,28,03,05,2.90
2008,10,28,03,06,3.00
2008,10,28,03,07,3.00
2008,10,28,03,08,3.10
2008,10,28,03,09,3.20
2008,10,28,03,10,3.20
2008,10,28,03,11,3.20
2008,10,28,03,12,3.10
2008,10,28,03,13,3.10
2008,10,28,03,14,3.00
2008,10,28,03,15,3.00
2008,10,28,03,16,2.90
2008,10,28,03,17,2.90
2008,10,28,03,18,2.80
2008,10,28,03,19,2.70
2008,10,28,03,20,2.70
2008,10,28,03,21,2.70
2008,10,28,03,22,2.70
2008,10,28,03,23,2.70
2008,10,28,03,24,2.70
2008,10,28,03,25,2.60
2008,10,28,03,26,2.60
2008,10,28,03,27,2.60
2008,10,28,03,28,2.70
2008,10,28,03,29,3.10
2008,10,28,03,30,3.30
2008,10,28,03,31,3.60
2008,10,28,03,32,3.80
2008,10,28,03,33,4.00
2008,10,28,03,34,4.10
2008,10,28,03,35,4.30
2008,10,28,03,36,4.40
2008,10,28,03,37,4.50
2008,10,28,03,38,4.50
2008,10,28,03,39,4.50
2008,10,28,03,40,4.50
2008,10,28,03,41,4.40
2008,10,28,03,42,4.40
2008,10,28,03,43,4.40
2008,10,28,03,44,4.40
2008,10,28,03,45,4.40
2008,10,28,03,46,4.50
2008,10,28,03,47,4.50
2008,10,28,03,48,4.50
2008,10,28,03,49,4.60
2008,10,28,03,50,4.80
2008,10,28,03,51,5.00
2008,10,28,03,52,5.30
2008,10,28,03,53,5.60
2008,10,28,03,54,5.90
2008,10,28,03,55,6.10
2008,10,28,03,56,6.40
2008,10,28,03,57,6.70
2008,10,28,03,58,6.90
2008,10,28,03,59,7.10
2008,10,28,04,00,7.20
2008,10,28,04,01,7.30
2008,10,28,04,02,7.40
2008,10,28,04,03,7.40
2008,10,28,04,04,7.40
2008,10,28,04,05,7.40
2008,10,28,04,06,7.40
2008,10,28,04,07,7.50
2008,10,28,04,08,7.50
2008,10,28,04,09,7.60
2008,10,28,04,10,7.60
2008,10,28,04,11,7.70
2008,10,28,04,12,7.70
2008,10,28,04,13,7.60
2008,10,28,04,14,7.60
2008,10,28,04,15,7.60
2008,10,28,04,16,7.60
2008,10,28,04,17,7.50
2008,10,28,04,18,7.50
2008,10,28,04,19,7.50
2008,10,28,04,20,7.40
2008,10,28,04,21,7.40
2008,10,28,04,22,7.40
2008,10,28,04,23,7.40
2008,10,28,04,24,7.40
2008,10,28,04,25,7.40
2008,10,28,04,26,7.40
2008,10,28,04,27,7.40
2008,10,28,04,28,7.40
2008,10,28,04,29,7.40
2008,10,28,04,30,7.40
2008,10,28,04,31,7.40
2008,10,28,04,32,7.40
2008,10,28,04,33,7.40
2008,10,28,04,34,7.40
2008,10,28,04,35,7.40
2008,10,28,04,36,7.40
2008,10,28,04,37,7.40
2008,10,28,04,38,7.40
2008,10,28,04,39,7.30
2008,10,28,04,40,7.30
2008,10,28,04,41,7.30
2008,10,28,04,42,7.40
2008,10,28,04,43,7.40
2008,10,28,04,44,7.50
2008,10,28,04,45,7.50
2008,10,28,04,46,7.60
2008,10,28,04,47,7.70
2008,10,28,04,48,7.70
2008,10,28,04,49,7.70
2008,10,28,04,50,7.80
2008,10,28,04,51,7.80
2008,10,28,04,52,7.80
2008,10,28,04,53,7.80
2008,10,28,04,54,7.80
2008,10,28,04,55,7.80
2008,10,28,04,56,7.80
2008,10,28,04,57,7.70
2008,10,28,04,58,7.70
2008,10,28,04,59,7.60
2008,10,28,05,00,7.50
2008,10,28,05,01,7.30
2008,10,28,05,02,7.20
2008,10,28,05,03,7.20
2008,10,28,05,04,7.10
2008,10,28,05,05,7.10
2008,10,28,05,06,7.10
2008,10,28,05,07,7.20
2008,10,28,05,08,7.20
2008,10,28,05,09,7.20
2008,10,28,05,10,7.40
2008,10,28,05,11,7.50
2008,10,28,05,12,7.60
2008,10,28,05,13,7.70
2008,10,28,05,14,7.80
2008,10,28,05,15,7.80
2008,10,28,05,16,7.80
2008,10,28,05,17,7.80
2008,10,28,05,18,7.80
2008,10,28,05,19,7.70
2008,10,28,05,20,7.70
2008,10,28,05,21,7.70
2008,10,28,05,22,7.60
2008,10,28,05,23,7.60
2008,10,28,05,24,7.50
2008,10,28,05,25,7.50
2008,10,28,05,26,7.50
2008,10,28,05,27,7.40
2008,10,28,05,28,7.40
2008,10,28,05,29,7.30
2008,10,28,05,30,7.20
2008,10,28,05,31,7.20
2008,10,28,05,32,7.20
2008,10,28,05,33,7.10
2008,10,28,05,34,7.10
2008,10,28,05,35,7.10
2008,10,28,05,36,7.00
2008,10,28,05,37,6.90
2008,10,28,05,38,6.80
2008,10,28,05,39,6.80
2008,10,28,05,40,6.70
2008,10,28,05,41,6.60
2008,10,28,05,42,6.60
2008,10,28,05,43,6.50
2008,10,28,05,44,6.50
2008,10,28,05,45,6.50
2008,10,28,05,46,6.50
2008,10,28,05,47,6.40
2008,10,28,05,48,6.40
2008,10,28,05,49,6.40
2008,10,28,05,50,6.40
2008,10,28,05,51,6.40
2008,10,28,05,52,6.40
2008,10,28,05,53,6.40
2008,10,28,05,54,6.40
2008,10,28,05,55,6.40
2008,10,28,05,56,6.40
2008,10,28,05,57,6.30
2008,10,28,05,58,6.30
2008,10,28,05,59,6.30
2008,10,28,06,00,6.40
2008,10,28,06,01,6.40
2008,10,28,06,02,6.50
2008,10,28,06,03,6.60
2008,10,28,06,04,6.60
2008,10,28,06,05,6.70
2008,10,28,06,06,6.80
2008,10,28,06,07,6.80
2008,10,28,06,08,6.80
2008,10,28,06,09,6.90
2008,10,28,06,10,6.90
2008,10,28,06,11,6.90
2008,10,28,06,12,6.90
2008,10,28,06,13,6.90
2008,10,28,06,14,6.80
2008,10,28,06,15,6.80
2008,10,28,06,16,6.80
2008,10,28,06,17,6.80
2008,10,28,06,18,6.70
2008,10,28,06,19,6.70
2008,10,28,06,20,6.70
2008,10,28,06,21,6.70
2008,10,28,06,22,6.70
2008,10,28,06,23,6.70
2008,10,28,06,24,6.60
2008,10,28,06,25,6.60
2008,10,28,06,26,6.60
2008,10,28,06,27,6.60
2008,10,28,06,28,6.50
2008,10,28,06,29,6.50
2008,10,28,06,30,6.50
2008,10,28,06,31,6.40
2008,10,28,06,32,6.40
2008,10,28,06,33,6.30
2008,10,28,06,34,6.20
2008,10,28,06,35,6.20
2008,10,28,06,36,6.10
2008,10,28,06,37,6.10
2008,10,28,06,38,6.10
2008,10,28,06,39,6.10
2008,10,28,06,40,6.10
2008,10,28,06,41,6.10
2008,10,28,06,42,6.00
2008,10,28,06,43,6.00
2008,10,28,06,44,6.00
2008,10,28,06,45,6.00
2008,10,28,06,46,6.00
2008,10,28,06,47,6.00
2008,10,28,06,48,5.90
2008,10,28,06,49,5.90
2008,10,28,06,50,5.90
2008,10,28,06,51,5.90
2008,10,28,06,52,5.90
2008,10,28,06,53,5.90
2008,10,28,06,54,5.90
2008,10,28,06,55,5.80
2008,10,28,06,56,5.80
2008,10,28,06,57,5.80
2008,10,28,06,58,5.70
2008,10,28,06,59,5.80
2008,10,28,07,00,5.80
2008,10,28,07,01,5.90
2008,10,28,07,02,6.00
2008,10,28,07,03,6.20
2008,10,28,07,04,6.40
2008,10,28,07,05,6.60
2008,10,28,07,06,6.70
2008,10,28,07,07,6.80
2008,10,28,07,08,6.90
2008,10,28,07,09,7.00
2008,10,28,07,10,7.10
2008,10,28,07,11,7.10
2008,10,28,07,12,7.20
2008,10,28,07,13,7.20
2008,10,28,07,14,7.20
2008,10,28,07,15,7.10
2008,10,28,07,16,7.10
2008,10,28,07,17,7.20
2008,10,28,07,18,7.20
2008,10,28,07,19,7.20
2008,10,28,07,20,7.20
2008,10,28,07,21,7.10
2008,10,28,07,22,7.10
2008,10,28,07,23,7.10
2008,10,28,07,24,7.10
2008,10,28,07,25,7.10
2008,10,28,07,26,7.00
2008,10,28,07,27,7.00
2008,10,28,07,28,6.90
2008,10,28,07,29,6.90
2008,10,28,07,30,6.80
2008,10,28,07,31,6.70
2008,10,28,07,32,6.60
2008,10,28,07,33,6.60
2008,10,28,07,34,6.50
2008,10,28,07,35,6.40
2008,10,28,07,36,6.40
2008,10,28,07,37,6.30
2008,10,28,07,38,6.20
2008,10,28,07,39,6.20
2008,10,28,07,40,6.10
2008,10,28,07,41,6.10
2008,10,28,07,42,6.00
2008,10,28,07,43,6.00
2008,10,28,07,44,5.90
2008,10,28,07,45,5.90
2008,10,28,07,46,5.90
2008,10,28,07,47,5.80
2008,10,28,07,48,5.80
2008,10,28,07,49,5.70
2008,10,28,07,50,5.70
2008,10,28,07,51,5.70
2008,10,28,07,52,5.80
2008,10,28,07,53,5.80
2008,10,28,07,54,5.80
2008,10,28,07,55,5.80
2008,10,28,07,56,5.80
2008,10,28,07,57,5.70
2008,10,28,07,58,5.60
2008,10,28,07,59,5.50
2008,10,28,08,00,5.40
2008,10,28,08,01,5.30
2008,10,28,08,02,5.20
2008,10,28,08,03,5.10
2008,10,28,08,04,5.10
2008,10,28,08,05,5.10
2008,10,28,08,06,5.10
2008,10,28,08,07,5.10
2008,10,28,08,08,5.00
2008,10,28,08,09,5.00
2008,10,28,08,10,5.00
2008,10,28,08,11,5.00
2008,10,28,08,12,5.00
2008,10,28,08,13,5.10
2008,10,28,08,14,5.10
2008,10,28,08,15,5.10
2008,10,28,08,16,5.10
2008,10,28,08,17,5.10
2008,10,28,08,18,5.10
2008,10,28,08,19,5.10
2008,10,28,08,20,5.10
2008,10,28,08,21,5.10
2008,10,28,08,22,5.10
2008,10,28,08,23,5.10
2008,10,28,08,24,5.00
2008,10,28,08,25,5.00
2008,10,28,08,26,4.90
2008,10,28,08,27,4.80
2008,10,28,08,28,4.80
2008,10,28,08,29,4.70
2008,10,28,08,30,4.70
2008,10,28,08,31,4.80
2008,10,28,08,32,4.80
2008,10,28,08,33,4.80
2008,10,28,08,34,4.90
2008,10,28,08,35,4.90
2008,10,28,08,36,5.00
2008,10,28,08,37,5.10
2008,10,28,08,38,5.20
2008,10,28,08,39,5.20
2008,10,28,08,40,5.30
2008,10,28,08,41,5.40
2008,10,28,08,42,5.50
2008,10,28,08,43,5.50
2008,10,28,08,44,5.60
2008,10,28,08,45,5.60
2008,10,28,08,46,5.70
2008,10,28,08,47,5.80
2008,10,28,08,48,5.80
2008,10,28,08,49,5.90
2008,10,28,08,50,5.90
2008,10,28,08,51,5.90
2008,10,28,08,52,5.90
2008,10,28,08,53,5.90
2008,10,28,08,54,5.90
2008,10,28,08,55,6.00
2008,10,28,08,56,6.00
2008,10,28,08,57,6.10
2008,10,28,08,58,6.10
2008,10,28,08,59,6.10
2008,10,28,09,00,6.10
2008,10,28,09,01,6.20
2008,10,28,09,02,6.30
2008,10,28,09,03,6.40
2008,10,28,09,04,6.50
2008,10,28,09,05,6.60
2008,10,28,09,06,6.80
2008,10,28,09,07,6.90
2008,10,28,09,08,6.90
2008,10,28,09,09,7.00
2008,10,28,09,10,7.10
2008,10,28,09,11,7.20
2008,10,28,09,12,7.20
2008,10,28,09,13,7.20
2008,10,28,09,14,7.30
2008,10,28,09,15,7.30
2008,10,28,09,16,7.40
2008,10,28,09,17,7.40
2008,10,28,09,18,7.50
2008,10,28,09,19,7.50
2008,10,28,09,20,7.60
2008,10,28,09,21,7.60
2008,10,28,09,22,7.70
2008,10,28,09,23,7.70
2008,10,28,09,24,7.70
2008,10,28,09,25,7.80
2008,10,28,09,26,7.90
2008,10,28,09,27,7.90
2008,10,28,09,28,8.00
2008,10,28,09,29,8.00
2008,10,28,09,30,8.10
2008,10,28,09,31,8.20
2008,10,28,09,32,8.20
2008,10,28,09,33,8.30
2008,10,28,09,34,8.30
2008,10,28,09,35,8.40
2008,10,28,09,36,8.50
2008,10,28,09,37,8.50
2008,10,28,09,38,8.60
2008,10,28,09,39,8.70
2008,10,28,09,40,8.70
2008,10,28,09,41,8.80
2008,10,28,09,42,8.90
2008,10,28,09,43,8.90
2008,10,28,09,44,9.00
2008,10,28,09,45,9.10
2008,10,28,09,46,9.20
2008,10,28,09,47,9.20
2008,10,28,09,48,9.30
2008,10,28,09,49,9.30
2008,10,28,09,50,9.40
2008,10,28,09,51,9.40
2008,10,28,09,52,9.40
2008,10,28,09,53,9.40
2008,10,28,09,54,9.40
2008,10,28,09,55,9.40
2008,10,28,09,56,9.40
2008,10,28,09,57,9.40
2008,10,28,09,58,9.30
2008,10,28,09,59,9.30
2008,10,28,10,00,9.30
2008,10,28,10,01,9.20
2008,10,28,10,02,9.20
2008,10,28,10,03,9.10
2008,10,28,10,04,9.10
2008,10,28,10,05,9.10
2008,10,28,10,06,9.00
2008,10,28,10,07,9.00
2008,10,28,10,08,8.90
2008,10,28,10,09,8.90
2008,10,28,10,10,8.90
2008,10,28,10,11,8.90
2008,10,28,10,12,8.80
2008,10,28,10,13,8.80
2008,10,28,10,14,8.80
2008,10,28,10,15,8.80
2008,10,28,10,16,8.80
2008,10,28,10,17,8.70
2008,10,28,10,18,8.70
2008,10,28,10,19,8.70
2008,10,28,10,20,8.70
2008,10,28,10,21,8.80
2008,10,28,10,22,8.80
2008,10,28,10,23,8.80
2008,10,28,10,24,8.80
2008,10,28,10,25,8.90
2008,10,28,10,26,8.90
2008,10,28,10,27,9.00
2008,10,28,10,28,9.10
2008,10,28,10,29,9.10
2008,10,28,10,30,9.20
2008,10,28,10,31,9.30
2008,10,28,10,32,9.40
2008,10,28,10,33,9.50
2008,10,28,10,34,9.60
2008,10,28,10,35,9.70
2008,10,28,10,36,9.80
2008,10,28,10,37,9.90
2008,10,28,10,38,9.90
2008,10,28,10,39,10.00
2008,10,28,10,40,10.10
2008,10,28,10,41,10.10
2008,10,28,10,42,10.20
2008,10,28,10,43,10.30
2008,10,28,10,44,10.30
2008,10,28,10,45,10.40
2008,10,28,10,46,10.40
2008,10,28,10,47,10.50
2008,10,28,10,48,10.50
2008,10,28,10,49,10.50
2008,10,28,10,50,10.50
2008,10,28,10,51,10.50
2008,10,28,10,52,10.50
2008,10,28,10,53,10.60
2008,10,28,10,54,10.70
2008,10,28,10,55,10.70
2008,10,28,10,56,10.80
2008,10,28,10,57,10.80
2008,10,28,10,58,10.80
2008,10,28,10,59,10.80
2008,10,28,11,00,10.70
2008,10,28,11,01,10.70
2008,10,28,11,02,10.70
2008,10,28,11,03,10.70
2008,10,28,11,04,10.70
2008,10,28,11,05,10.60
2008,10,28,11,06,10.60
2008,10,28,11,07,10.60
2008,10,28,11,08,10.60
2008,10,28,11,09,10.60
2008,10,28,11,10,10.70
2008,10,28,11,11,10.70
2008,10,28,11,12,10.70
2008,10,28,11,13,10.70
2008,10,28,11,14,10.70
2008,10,28,11,15,10.70
2008,10,28,11,16,10.60
2008,10,28,11,17,10.60
2008,10,28,11,18,10.60
2008,10,28,11,19,10.70
2008,10,28,11,20,10.70
2008,10,28,11,21,10.80
2008,10,28,11,22,10.80
2008,10,28,11,23,10.90
2008,10,28,11,24,11.00
2008,10,28,11,25,11.10
2008,10,28,11,26,11.20
2008,10,28,11,27,11.30
2008,10,28,11,28,11.30
2008,10,28,11,29,11.40
2008,10,28,11,30,11.50
2008,10,28,11,31,11.50
2008,10,28,11,32,11.60
2008,10,28,11,33,11.60
2008,10,28,11,34,11.70
2008,10,28,11,35,11.70
2008,10,28,11,36,11.80
2008,10,28,11,37,11.80
2008,10,28,11,38,11.80
2008,10,28,11,39,11.80
2008,10,28,11,40,11.80
2008,10,28,11,41,11.90
2008,10,28,11,42,12.00
2008,10,28,11,43,12.00
2008,10,28,11,44,12.10
2008,10,28,11,45,12.10
2008,10,28,11,46,12.10
2008,10,28,11,47,12.20
2008,10,28,11,48,12.20
2008,10,28,11,49,12.30
2008,10,28,11,50,12.30
2008,10,28,11,51,12.40
2008,10,28,11,52,12.40
2008,10,28,11,53,12.40
2008,10,28,11,54,12.40
2008,10,28,11,55,12.40
2008,10,28,11,56,12.40
2008,10,28,11,57,12.40
2008,10,28,11,58,12.40
2008,10,28,11,59,12.50
2008,10,28,12,00,12.50
2008,10,28,12,01,12.60
2008,10,28,12,02,12.60
2008,10,28,12,03,12.70
2008,10,28,12,04,12.70
2008,10,28,12,05,12.70
2008,10,28,12,06,12.80
2008,10,28,12,07,12.80
2008,10,28,12,08,12.80
2008,10,28,12,09,12.80
2008,10,28,12,10,12.80
2008,10,28,12,11,12.80
2008,10,28,12,12,12.80
2008,10,28,12,13,12.80
2008,10,28,12,14,12.90
2008,10,28,12,15,12.90
2008,10,28,12,16,12.90
2008,10,28,12,17,12.90
2008,10,28,12,18,12.90
2008,10,28,12,19,13.00
2008,10,28,12,20,12.90
2008,10,28,12,21,12.80
2008,10,28,12,22,12.70
2008,10,28,12,23,12.50
2008,10,28,12,24,12.40
2008,10,28,12,25,12.20
2008,10,28,12,26,12.00
2008,10,28,12,27,11.90
2008,10,28,12,28,11.80
2008,10,28,12,29,11.80
2008,10,28,12,30,11.70
2008,10,28,12,31,11.80
2008,10,28,12,32,11.80
2008,10,28,12,33,11.90
2008,10,28,12,34,11.90
2008,10,28,12,35,12.00
2008,10,28,12,36,12.10
2008,10,28,12,37,12.20
2008,10,28,12,38,12.30
2008,10,28,12,39,12.30
2008,10,28,12,40,12.30
2008,10,28,12,41,12.40
2008,10,28,12,42,12.40
2008,10,28,12,43,12.50
2008,10,28,12,44,12.60
2008,10,28,12,45,12.70
2008,10,28,12,46,12.90
2008,10,28,12,47,13.10
2008,10,28,12,48,13.20
2008,10,28,12,49,13.30
2008,10,28,12,50,13.40
2008,10,28,12,51,13.50
2008,10,28,12,52,13.60
2008,10,28,12,53,13.60
2008,10,28,12,54,13.70
2008,10,28,12,55,13.80
2008,10,28,12,56,13.80
2008,10,28,12,57,13.80
2008,10,28,12,58,13.80
2008,10,28,12,59,13.80
2008,10,28,13,00,13.70
2008,10,28,13,01,13.70
2008,10,28,13,02,13.70
2008,10,28,13,03,13.70
2008,10,28,13,04,13.70
2008,10,28,13,05,13.70
2008,10,28,13,06,13.70
2008,10,28,13,07,13.70
2008,10,28,13,08,13.70
2008,10,28,13,09,13.70
2008,10,28,13,10,13.70
2008,10,28,13,11,13.70
2008,10,28,13,12,13.70
2008,10,28,13,13,13.70
2008,10,28,13,14,13.80
2008,10,28,13,15,13.80
2008,10,28,13,16,13.90
2008,10,28,13,17,13.80
2008,10,28,13,18,13.90
2008,10,28,13,19,13.90
2008,10,28,13,20,14.00
2008,10,28,13,21,14.00
2008,10,28,13,22,14.00
2008,10,28,13,23,14.00
2008,10,28,13,24,14.00
2008,10,28,13,25,14.00
2008,10,28,13,26,14.10
2008,10,28,13,27,14.10
2008,10,28,13,28,14.10
2008,10,28,13,29,14.20
2008,10,28,13,30,14.20
2008,10,28,13,31,14.10
2008,10,28,13,32,14.00
2008,10,28,13,33,13.80
2008,10,28,13,34,13.60
2008,10,28,13,35,13.40
2008,10,28,13,36,13.30
2008,10,28,13,37,13.10
2008,10,28,13,38,13.10
2008,10,28,13,39,13.00
2008,10,28,13,40,12.90
2008,10,28,13,41,12.80
2008,10,28,13,42,12.80
2008,10,28,13,43,12.70
2008,10,28,13,44,12.70
2008,10,28,13,45,12.60
2008,10,28,13,46,12.60
2008,10,28,13,47,12.60
2008,10,28,13,48,12.60
2008,10,28,13,49,12.60
2008,10,28,13,50,12.60
2008,10,28,13,51,12.60
2008,10,28,13,52,12.60
2008,10,28,13,53,12.60
2008,10,28,13,54,12.60
2008,10,28,13,55,12.60
2008,10,28,13,56,12.60
2008,10,28,13,57,12.50
2008,10,28,13,58,12.50
2008,10,28,13,59,12.40
2008,10,28,14,00,12.40
2008,10,28,14,01,12.40
2008,10,28,14,02,12.40
2008,10,28,14,03,12.40
2008,10,28,14,04,12.40
2008,10,28,14,05,12.30
2008,10,28,14,06,12.30
2008,10,28,14,07,12.20
2008,10,28,14,08,12.20
2008,10,28,14,09,12.30
2008,10,28,14,10,12.30
2008,10,28,14,11,12.30
2008,10,28,14,12,12.30
2008,10,28,14,13,12.40
2008,10,28,14,14,12.40
2008,10,28,14,15,12.50
2008,10,28,14,16,12.50
2008,10,28,14,17,12.50
2008,10,28,14,18,12.60
2008,10,28,14,19,12.60
2008,10,28,14,20,12.60
2008,10,28,14,21,12.60
2008,10,28,14,22,12.60
2008,10,28,14,23,12.60
2008,10,28,14,24,12.60
2008,10,28,14,25,12.50
2008,10,28,14,26,12.40
2008,10,28,14,27,12.30
2008,10,28,14,28,12.30
2008,10,28,14,29,12.30
2008,10,28,14,30,12.20
2008,10,28,14,31,12.20
2008,10,28,14,32,12.20
2008,10,28,14,33,12.20
2008,10,28,14,34,12.10
2008,10,28,14,35,12.10
2008,10,28,14,36,12.10
2008,10,28,14,37,12.20
2008,10,28,14,38,12.20
2008,10,28,14,39,12.20
2008,10,28,14,40,12.30
2008,10,28,14,41,12.30
2008,10,28,14,42,12.30
2008,10,28,14,43,12.30
2008,10,28,14,44,12.40
2008,10,28,14,45,12.30
2008,10,28,14,46,12.40
2008,10,28,14,47,12.40
2008,10,28,14,48,12.40
2008,10,28,14,49,12.40
2008,10,28,14,50,12.40
2008,10,28,14,51,12.50
2008,10,28,14,52,12.50
2008,10,28,14,53,12.60
2008,10,28,14,54,12.60
2008,10,28,14,55,12.60
2008,10,28,14,56,12.60
2008,10,28,14,57,12.50
2008,10,28,14,58,12.50
2008,10,28,14,59,12.50
2008,10,28,15,00,12.50
2008,10,28,15,01,12.50
2008,10,28,15,02,12.60
2008,10,28,15,03,12.60
2008,10,28,15,04,12.70
2008,10,28,15,05,12.70
2008,10,28,15,06,12.70
2008,10,28,15,07,12.70
2008,10,28,15,08,12.70
2008,10,28,15,09,12.70
2008,10,28,15,10,12.70
2008,10,28,15,11,12.60
2008,10,28,15,12,12.60
2008,10,28,15,13,12.60
2008,10,28,15,14,12.60
2008,10,28,15,15,12.60
2008,10,28,15,16,12.60
2008,10,28,15,17,12.60
2008,10,28,15,18,12.60
2008,10,28,15,19,12.60
2008,10,28,15,20,12.60
2008,10,28,15,21,12.60
2008,10,28,15,22,12.60
2008,10,28,15,23,12.60
2008,10,28,15,24,12.50
2008,10,28,15,25,12.50
2008,10,28,15,26,12.50
2008,10,28,15,27,12.60
2008,10,28,15,28,12.60
2008,10,28,15,29,12.60
2008,10,28,15,30,12.60
2008,10,28,15,31,12.60
2008,10,28,15,32,12.70
2008,10,28,15,33,12.70
2008,10,28,15,34,12.80
2008,10,28,15,35,12.80
2008,10,28,15,36,12.90
2008,10,28,15,37,12.90
2008,10,28,15,38,12.90
2008,10,28,15,39,12.90
2008,10,28,15,40,12.90
2008,10,28,15,41,12.90
2008,10,28,15,42,12.90
2008,10,28,15,43,12.90
2008,10,28,15,44,12.90
2008,10,28,15,45,13.00
2008,10,28,15,46,13.00
2008,10,28,15,47,13.00
2008,10,28,15,48,13.00
2008,10,28,15,49,12.90
2008,10,28,15,50,12.90
2008,10,28,15,51,12.80
2008,10,28,15,52,12.80
2008,10,28,15,53,12.80
2008,10,28,15,54,12.70
2008,10,28,15,55,12.70
2008,10,28,15,56,12.80
2008,10,28,15,57,12.80
2008,10,28,15,58,12.80
2008,10,28,15,59,12.80
2008,10,28,16,00,12.70
2008,10,28,16,01,12.60
2008,10,28,16,02,12.40
2008,10,28,16,03,12.20
2008,10,28,16,04,12.00
2008,10,28,16,05,11.90
2008,10,28,16,06,11.90
2008,10,28,16,07,11.90
2008,10,28,16,08,11.90
2008,10,28,16,09,11.90
2008,10,28,16,10,11.90
2008,10,28,16,11,11.80
2008,10,28,16,12,11.80
2008,10,28,16,13,11.70
2008,10,28,16,14,11.70
2008,10,28,16,15,11.60
2008,10,28,16,16,11.50
2008,10,28,16,17,11.50
2008,10,28,16,18,11.50
2008,10,28,16,19,11.50
2008,10,28,16,20,11.50
2008,10,28,16,21,11.60
2008,10,28,16,22,11.60
2008,10,28,16,23,11.60
2008,10,28,16,24,11.70
2008,10,28,16,25,11.70
2008,10,28,16,26,11.70
2008,10,28,16,27,11.70
2008,10,28,16,28,11.70
2008,10,28,16,29,11.70
2008,10,28,16,30,11.70
2008,10,28,16,31,11.70
2008,10,28,16,32,11.70
2008,10,28,16,33,11.70
2008,10,28,16,34,11.70
2008,10,28,16,35,11.70
2008,10,28,16,36,11.70
2008,10,28,16,37,11.70
2008,10,28,16,38,11.70
2008,10,28,16,39,11.70
2008,10,28,16,40,11.70
2008,10,28,16,41,11.70
2008,10,28,16,42,11.60
2008,10,28,16,43,11.60
2008,10,28,16,44,11.60
2008,10,28,16,45,11.50
2008,10,28,16,46,11.50
2008,10,28,16,47,11.40
2008,10,28,16,48,11.40
2008,10,28,16,49,11.40
2008,10,28,16,50,11.40
2008,10,28,16,51,11.30
2008,10,28,16,52,11.30
2008,10,28,16,53,11.20
2008,10,28,16,54,11.10
2008,10,28,16,55,11.10
2008,10,28,16,56,11.00
2008,10,28,16,57,11.00
2008,10,28,16,58,11.00
2008,10,28,16,59,10.90
2008,10,28,17,00,10.90
2008,10,28,17,01,10.90
2008,10,28,17,02,10.80
2008,10,28,17,03,10.80
2008,10,28,17,04,10.80
2008,10,28,17,05,10.70
2008,10,28,17,06,10.70
2008,10,28,17,07,10.60
2008,10,28,17,08,10.50
2008,10,28,17,09,10.50
2008,10,28,17,10,10.40
2008,10,28,17,11,10.40
2008,10,28,17,12,10.40
2008,10,28,17,13,10.30
2008,10,28,17,14,10.30
2008,10,28,17,15,10.30
2008,10,28,17,16,10.30
2008,10,28,17,17,10.30
2008,10,28,17,18,10.30
2008,10,28,17,19,10.30
2008,10,28,17,20,10.30
2008,10,28,17,21,10.20
2008,10,28,17,22,10.20
2008,10,28,17,23,10.20
2008,10,28,17,24,10.10
2008,10,28,17,25,10.10
2008,10,28,17,26,10.10
2008,10,28,17,27,10.00
2008,10,28,17,28,10.00
2008,10,28,17,29,9.90
2008,10,28,17,30,9.90
2008,10,28,17,31,9.90
2008,10,28,17,32,9.90
2008,10,28,17,33,9.90
2008,10,28,17,34,9.90
2008,10,28,17,35,9.90
2008,10,28,17,36,9.90
2008,10,28,17,37,9.80
2008,10,28,17,38,9.80
2008,10,28,17,39,9.80
2008,10,28,17,40,9.80
2008,10,28,17,41,9.80
2008,10,28,17,42,9.80
2008,10,28,17,43,9.80
2008,10,28,17,44,9.80
2008,10,28,17,45,9.70
2008,10,28,17,46,9.70
2008,10,28,17,47,9.70
2008,10,28,17,48,9.70